EW5239 Weather Reports


Display with metric or nautical units.
time (UTC)temp
F
wind
direction
speed
MPH
gust
MPH
rain 1hr
in
rain 24hr
in
rain mn
in
humidity
%
barometer
mb
20260504231504 54 0 0.0 0.0 0.00 0.00 0.00 74 1009.6
20260504231124 54 0 0.0 0.0 0.00 0.00 0.00 74 1011.3
20260504231004 55 1 0.0 1.0 0.00 0.00 0.00 74 1009.8
20260504230625 55 0 0.0 0.0 0.00 0.00 0.00 75 1011.4
20260504230130 55 0 0.0 0.0 0.00 0.00 0.00 75 1011.4
20260504230004 56 354 1.0 2.0 0.00 0.00 0.00 73 1009.8
20260504225625 54 0 0.0 0.0 0.00 0.00 0.00 74 1011.6
20260504225504 56 0 0.0 0.0 0.00 0.00 0.00 72 1009.7
20260504225124 55 0 0.0 0.0 0.00 0.00 0.00 73 1011.4
20260504225004 56 181 0.0 1.0 0.00 0.00 0.00 72 1009.9
20260504224624 55 0 0.0 0.0 0.00 0.00 0.00 73 1011.5
20260504224125 56 0 0.0 0.0 0.00 0.00 0.00 72 1011.4
20260504224004 57 270 0.0 1.0 0.00 0.00 0.00 70 1009.8
20260504223624 56 0 0.0 0.0 0.00 0.00 0.00 71 1011.6
20260504223504 57 255 1.0 2.0 0.00 0.00 0.00 70 1010.0
20260504223124 56 218 0.0 2.0 0.00 0.00 0.00 71 1011.5
20260504223003 57 233 1.0 2.0 0.00 0.00 0.00 69 1010.0
20260504222624 57 182 0.0 2.0 0.00 0.00 0.00 71 1011.8
20260504222504 58 225 0.0 2.0 0.00 0.00 0.00 69 1010.1
20260504222124 57 135 0.0 1.0 0.00 0.00 0.00 71 1011.7
20260504222004 58 0 0.0 0.0 0.00 0.00 0.00 69 1010.0
20260504221625 57 154 0.0 1.0 0.00 0.00 0.00 70 1011.6
20260504221125 57 209 0.0 1.0 0.00 0.00 0.00 69 1011.7
20260504221004 58 225 1.0 2.0 0.00 0.00 0.00 67 1009.9
20260504220625 57 225 0.0 1.0 0.00 0.00 0.00 68 1011.6
20260504220504 59 225 1.0 2.0 0.00 0.00 0.00 67 1009.9
20260504220131 58 208 0.0 1.0 0.00 0.00 0.00 67 1011.7
20260504220004 59 225 0.0 2.0 0.00 0.00 0.00 67 1009.9
20260504215504 59 225 0.0 1.0 0.00 0.00 0.00 65 1009.9
20260504215125 59 181 0.0 1.0 0.00 0.00 0.00 66 1011.7
20260504214624 59 181 0.0 2.0 0.00 0.00 0.00 65 1011.7
20260504214504 60 200 1.0 2.0 0.00 0.00 0.00 65 1010.1
20260504214124 59 154 1.0 2.0 0.00 0.00 0.00 65 1011.7
20260504213124 59 235 2.0 4.0 0.00 0.00 0.00 65 1011.7
20260504212504 60 181 2.0 4.0 0.00 0.00 0.00 64 1010.0
20260504212125 59 181 0.0 1.0 0.00 0.00 0.00 64 1011.6
20260504212003 60 181 1.0 2.0 0.00 0.00 0.00 63 1010.0
20260504211624 60 0 0.0 0.0 0.00 0.00 0.00 63 1011.5
20260504211504 60 181 1.0 2.0 0.00 0.00 0.00 63 1009.8
20260504211124 60 0 0.0 0.0 0.00 0.00 0.00 63 1011.7
20260504211003 61 0 0.0 0.0 0.00 0.00 0.00 62 1010.0
20260504210625 61 0 0.0 0.0 0.00 0.00 0.00 63 1011.4
20260504210504 61 181 0.0 2.0 0.00 0.00 0.00 62 1010.1
20260504210130 61 0 0.0 0.0 0.00 0.00 0.00 61 1011.4
20260504210005 61 181 0.0 2.0 0.00 0.00 0.00 61 1009.8
20260504205624 61 179 0.0 1.0 0.00 0.00 0.00 61 1011.3
20260504205504 62 195 1.0 2.0 0.00 0.00 0.00 61 1009.9
20260504205124 61 241 0.0 1.0 0.00 0.00 0.00 61 1011.5
20260504205004 62 213 1.0 2.0 0.00 0.00 0.00 60 1009.9
20260504204624 62 212 0.0 2.0 0.00 0.00 0.00 60 1011.5
20260504204504 62 202 1.0 2.0 0.00 0.00 0.00 60 1010.0
20260504204124 62 151 0.0 2.0 0.00 0.00 0.00 59 1011.6
20260504204004 62 314 1.0 2.0 0.00 0.00 0.00 59 1010.1
20260504203625 62 285 2.0 4.0 0.00 0.00 0.00 59 1011.5
20260504203503 63 330 3.0 5.0 0.00 0.00 0.00 58 1010.0
20260504203124 62 311 3.0 4.0 0.00 0.00 0.00 59 1011.6
20260504203004 63 332 3.0 5.0 0.00 0.00 0.00 58 1010.0
20260504202503 63 339 3.0 4.0 0.00 0.00 0.00 57 1010.1
20260504202125 63 356 1.0 3.0 0.00 0.00 0.00 55 1011.3
20260504202004 63 329 2.0 3.0 0.00 0.00 0.00 56 1009.8
20260504201504 64 214 1.0 2.0 0.00 0.00 0.00 55 1009.9
20260504201124 65 190 2.0 2.0 0.00 0.00 0.00 55 1011.4
20260504200624 65 181 2.0 3.0 0.00 0.00 0.00 54 1011.3
20260504200503 65 185 2.0 3.0 0.00 0.00 0.00 55 1009.8
20260504200130 65 183 2.0 3.0 0.00 0.00 0.00 54 1011.5
20260504195624 65 184 2.0 2.0 0.00 0.00 0.00 54 1011.4
20260504195503 65 187 2.0 3.0 0.00 0.00 0.00 55 1009.8
20260504195125 65 190 2.0 2.0 0.00 0.00 0.00 55 1011.4
20260504195004 65 205 2.0 2.0 0.00 0.00 0.00 55 1009.7
20260504194625 65 199 2.0 2.0 0.00 0.00 0.00 55 1011.4
20260504194503 65 216 2.0 2.0 0.00 0.00 0.00 55 1009.8
20260504194004 65 214 2.0 2.0 0.00 0.00 0.00 56 1009.8
20260504193624 65 208 2.0 3.0 0.00 0.00 0.00 55 1011.3
20260504193503 65 211 3.0 4.0 0.00 0.00 0.00 56 1009.7
20260504193125 64 201 2.0 3.0 0.00 0.00 0.00 55 1011.3
20260504193004 65 201 3.0 6.0 0.00 0.00 0.00 56 1009.7
20260504192625 64 192 3.0 6.0 0.00 0.00 0.00 56 1011.2
20260504192504 64 192 3.0 6.0 0.00 0.00 0.00 56 1009.8
20260504192124 64 186 3.0 6.0 0.00 0.00 0.00 57 1011.3
20260504192004 64 184 3.0 4.0 0.00 0.00 0.00 56 1009.8
20260504191624 64 175 2.0 3.0 0.00 0.00 0.00 56 1011.5
20260504191503 64 175 2.0 3.0 0.00 0.00 0.00 56 1009.7
20260504191125 63 170 2.0 3.0 0.00 0.00 0.00 56 1011.4
20260504191004 64 170 2.0 3.0 0.00 0.00 0.00 56 1009.6
20260504190624 64 165 1.0 2.0 0.00 0.00 0.00 56 1011.5
20260504190504 65 176 1.0 2.0 0.00 0.00 0.00 55 1009.6
20260504190130 64 168 0.0 1.0 0.00 0.00 0.00 55 1011.3
20260504190004 65 181 1.0 2.0 0.00 0.00 0.00 55 1009.6
20260504184504 67 165 1.0 2.0 0.00 0.00 0.00 51 1009.6
20260504184124 66 170 0.0 1.0 0.00 0.00 0.00 51 1011.4
20260504184004 67 174 1.0 2.0 0.00 0.00 0.00 50 1009.6
20260504183625 67 152 0.0 1.0 0.00 0.00 0.00 51 1011.1
20260504183504 68 181 0.0 1.0 0.00 0.00 0.00 48 1009.4
20260504183124 67 135 0.0 1.0 0.00 0.00 0.00 50 1011.2
20260504183004 68 149 0.0 2.0 0.00 0.00 0.00 48 1009.6
20260504182625 67 135 0.0 1.0 0.00 0.00 0.00 49 1011.2
20260504182504 69 140 1.0 2.0 0.00 0.00 0.00 48 1009.4
20260504182124 68 139 1.0 2.0 0.00 0.00 0.00 48 1011.2
20260504181624 68 140 1.0 2.0 0.00 0.00 0.00 46 1011.2
20260504181504 69 142 1.0 2.0 0.00 0.00 0.00 46 1009.4
20260504181125 69 135 0.0 1.0 0.00 0.00 0.00 45 1011.1
20260504181004 70 255 1.0 1.0 0.00 0.00 0.00 45 1009.5
20260504180624 71 270 0.0 1.0 0.00 0.00 0.00 43 1011.0
20260504180504 72 270 1.0 2.0 0.00 0.00 0.00 41 1009.4
20260504180130 71 270 0.0 2.0 0.00 0.00 0.00 43 1010.9
20260504180004 72 241 1.0 2.0 0.00 0.00 0.00 41 1009.3
20260504175624 72 234 0.0 2.0 0.00 0.00 0.00 41 1011.1
20260504175504 73 189 1.0 2.0 0.00 0.00 0.00 40 1009.3
20260504175125 72 181 0.0 1.0 0.00 0.00 0.00 40 1011.0
20260504175003 74 181 1.0 2.0 0.00 0.00 0.00 39 1009.4
20260504174625 73 186 1.0 2.0 0.00 0.00 0.00 39 1011.1
20260504174504 74 181 1.0 2.0 0.00 0.00 0.00 39 1009.3
20260504174125 73 186 1.0 2.0 0.00 0.00 0.00 38 1010.9
20260504174004 75 196 1.0 2.0 0.00 0.00 0.00 38 1009.0
20260504173624 74 181 0.0 1.0 0.00 0.00 0.00 37 1011.1
20260504173124 74 225 0.0 2.0 0.00 0.00 0.00 37 1011.0
20260504173003 75 225 1.0 2.0 0.00 0.00 0.00 36 1009.1
20260504172003 76 225 3.0 4.0 0.00 0.00 0.00 36 1009.3
20260504171625 75 216 3.0 4.0 0.00 0.00 0.00 36 1010.8
20260504171504 76 215 3.0 4.0 0.00 0.00 0.00 35 1009.2
20260504171004 76 217 4.0 5.0 0.00 0.00 0.00 35 1009.1
20260504170625 76 224 4.0 5.0 0.00 0.00 0.00 34 1010.8
20260504170504 77 225 4.0 6.0 0.00 0.00 0.00 35 1009.3
20260504170130 76 222 4.0 5.0 0.00 0.00 0.00 34 1011.0
20260504160130 77 231 7.0 11.0 0.00 0.00 0.00 29 1010.8
20260504151125 78 256 7.0 11.0 0.00 0.00 0.00 30 1011.5
20260504151004 78 226 8.0 11.0 0.00 0.00 0.00 33 1009.6
20260504150625 78 273 10.0 13.0 0.00 0.00 0.00 30 1011.3
20260504150503 78 235 9.0 11.0 0.00 0.00 0.00 33 1009.6
20260504150130 78 256 10.0 13.0 0.00 0.00 0.00 31 1011.5
20260504141003 79 186 9.0 13.0 0.00 0.00 0.00 32 1009.9
20260504140624 79 204 7.0 13.0 0.00 0.00 0.00 31 1011.5
20260504140130 79 219 7.0 8.0 0.00 0.00 0.00 32 1011.8
20260504130624 78 234 9.0 13.0 0.00 0.00 0.00 30 1012.1
20260504130503 78 232 8.0 11.0 0.00 0.00 0.00 34 1010.6
20260504130132 78 255 8.0 11.0 0.00 0.00 0.00 32 1012.2
20260504120130 78 250 8.0 11.0 0.00 0.00 0.00 33 1012.5
20260504110625 76 232 9.0 11.0 0.00 0.00 0.00 34 1013.0
20260504110503 76 228 10.0 12.0 0.00 0.00 0.00 36 1011.5
20260504110130 76 217 10.0 14.0 0.00 0.00 0.00 35 1012.9
20260504100504 74 284 9.0 11.0 0.00 0.00 0.00 39 1012.1
20260504090131 73 203 8.0 13.0 0.00 0.00 0.00 37 1013.8
20260504082004 71 240 10.0 15.0 0.00 0.00 0.00 40 1012.3
20260504081503 71 264 10.0 14.0 0.00 0.00 0.00 40 1012.3
20260504081125 70 279 11.0 14.0 0.00 0.00 0.00 37 1013.8
20260504081004 70 293 11.0 14.0 0.00 0.00 0.00 40 1012.2
20260504080624 70 258 11.0 12.0 0.00 0.00 0.00 38 1013.9
20260504080503 70 305 11.0 12.0 0.00 0.00 0.00 40 1012.1
20260504080130 70 276 10.0 12.0 0.00 0.00 0.00 39 1013.8
20260504070131 66 220 9.0 11.0 0.00 0.00 0.00 43 1013.9
20260504050625 58 214 9.0 13.0 0.00 0.00 0.00 48 1013.6
20260504050503 58 223 9.0 11.0 0.00 0.00 0.00 50 1012.1
20260504050131 58 216 9.0 11.0 0.00 0.00 0.00 49 1013.7
20260504050004 58 219 8.0 11.0 0.00 0.00 0.00 51 1012.0
20260504045624 58 218 8.0 11.0 0.00 0.00 0.00 49 1013.6
20260504045124 57 222 8.0 11.0 0.00 0.00 0.00 49 1013.6
20260504045003 57 229 8.0 11.0 0.00 0.00 0.00 51 1012.0
20260504044624 57 223 9.0 11.0 0.00 0.00 0.00 50 1013.8
20260504044504 57 227 8.0 11.0 0.00 0.00 0.00 52 1011.9
20260504044004 57 220 7.0 11.0 0.00 0.00 0.00 52 1011.9
20260504043625 56 211 7.0 9.0 0.00 0.00 0.00 51 1013.7
20260504043503 57 221 7.0 10.0 0.00 0.00 0.00 52 1011.8
20260504043124 56 221 6.0 9.0 0.00 0.00 0.00 51 1013.6
20260504043004 56 222 8.0 10.0 0.00 0.00 0.00 52 1012.0
20260504042625 56 206 6.0 11.0 0.00 0.00 0.00 51 1013.6
20260504042124 56 219 7.0 11.0 0.00 0.00 0.00 51 1013.6
20260504042003 56 218 8.0 11.0 0.00 0.00 0.00 52 1011.7
20260504041624 56 231 7.0 11.0 0.00 0.00 0.00 51 1013.4
20260504041504 56 198 7.0 10.0 0.00 0.00 0.00 52 1011.7
20260504041125 56 228 7.0 11.0 0.00 0.00 0.00 51 1013.6
20260504041003 56 191 7.0 7.0 0.00 0.00 0.00 52 1011.7
20260504040624 55 235 6.0 7.0 0.00 0.00 0.00 51 1013.5
20260504040503 56 189 7.0 8.0 0.00 0.00 0.00 52 1011.7
20260504040130 55 209 7.0 11.0 0.00 0.00 0.00 51 1013.6
20260504040004 56 210 7.0 11.0 0.00 0.00 0.00 52 1011.6
20260504035625 55 193 6.0 11.0 0.00 0.00 0.00 51 1013.4
20260504035503 56 220 7.0 11.0 0.00 0.00 0.00 52 1011.8
20260504035124 55 200 6.0 8.0 0.00 0.00 0.00 50 1013.3
20260504034624 55 200 6.0 8.0 0.00 0.00 0.00 50 1013.6
20260504034503 56 204 7.0 9.0 0.00 0.00 0.00 51 1011.6
20260504034004 56 213 7.0 9.0 0.00 0.00 0.00 51 1011.4
20260504033625 55 206 7.0 9.0 0.00 0.00 0.00 50 1013.5
20260504033504 56 212 7.0 10.0 0.00 0.00 0.00 51 1011.6
20260504033124 55 205 7.0 10.0 0.00 0.00 0.00 50 1013.3
20260504032625 55 211 6.0 10.0 0.00 0.00 0.00 50 1013.4
20260504031624 56 205 6.0 8.0 0.00 0.00 0.00 49 1013.2
20260504031503 56 224 6.0 9.0 0.00 0.00 0.00 50 1011.6
20260504031124 56 206 6.0 8.0 0.00 0.00 0.00 49 1013.4
20260504031003 56 215 6.0 8.0 0.00 0.00 0.00 50 1011.5
20260504030504 56 220 7.0 8.0 0.00 0.00 0.00 50 1011.6
20260504030130 56 206 6.0 8.0 0.00 0.00 0.00 49 1013.5
20260504030003 56 214 6.0 8.0 0.00 0.00 0.00 50 1011.6
20260504025624 56 202 5.0 8.0 0.00 0.00 0.00 49 1013.4
20260504025503 56 201 6.0 8.0 0.00 0.00 0.00 50 1011.6
20260504025125 56 209 5.0 8.0 0.00 0.00 0.00 48 1013.2
20260504025004 57 205 6.0 8.0 0.00 0.00 0.00 49 1011.5
20260504024625 56 215 6.0 9.0 0.00 0.00 0.00 48 1013.5
20260504024503 57 218 6.0 9.0 0.00 0.00 0.00 49 1011.5
20260504024124 56 222 6.0 9.0 0.00 0.00 0.00 48 1013.6
20260504023624 57 210 6.0 8.0 0.00 0.00 0.00 48 1013.3
20260504023504 57 209 6.0 8.0 0.00 0.00 0.00 48 1011.7
20260504023125 57 209 6.0 11.0 0.00 0.00 0.00 48 1013.2
20260504023003 57 209 7.0 11.0 0.00 0.00 0.00 48 1011.6
20260504022624 57 212 7.0 11.0 0.00 0.00 0.00 46 1013.3
20260504022503 57 217 7.0 11.0 0.00 0.00 0.00 47 1011.7
20260504022124 57 211 7.0 11.0 0.00 0.00 0.00 46 1013.4
20260504022004 58 212 7.0 8.0 0.00 0.00 0.00 47 1011.4
20260504021625 57 211 7.0 10.0 0.00 0.00 0.00 46 1013.5
20260504021503 58 222 7.0 11.0 0.00 0.00 0.00 47 1011.5
20260504021125 57 213 6.0 10.0 0.00 0.00 0.00 46 1013.3
20260504021003 58 240 6.0 11.0 0.00 0.00 0.00 47 1011.5
20260504020504 58 222 5.0 9.0 0.00 0.00 0.00 47 1011.5
20260504020004 58 224 6.0 9.0 0.00 0.00 0.00 47 1011.5
20260504015624 58 208 5.0 6.0 0.00 0.00 0.00 46 1013.5
20260504015125 58 198 5.0 6.0 0.00 0.00 0.00 46 1013.5
20260504015004 58 231 6.0 7.0 0.00 0.00 0.00 47 1011.5
20260504014625 58 208 6.0 11.0 0.00 0.00 0.00 46 1013.4
20260504014503 58 220 7.0 12.0 0.00 0.00 0.00 47 1011.5
20260504014124 58 214 6.0 11.0 0.00 0.00 0.00 46 1013.4
20260504014003 58 218 7.0 12.0 0.00 0.00 0.00 48 1011.5
20260504013624 58 216 5.0 8.0 0.00 0.00 0.00 46 1013.3
20260504013504 58 227 5.0 8.0 0.00 0.00 0.00 48 1011.5
20260504013125 58 223 5.0 7.0 0.00 0.00 0.00 46 1013.4
20260504013003 58 236 5.0 8.0 0.00 0.00 0.00 48 1011.5
20260504012504 58 227 6.0 8.0 0.00 0.00 0.00 47 1011.5
20260504012124 58 219 5.0 7.0 0.00 0.00 0.00 46 1013.5
20260504012003 58 209 5.0 7.0 0.00 0.00 0.00 48 1011.6
20260504011624 58 222 5.0 7.0 0.00 0.00 0.00 46 1013.6
20260504011125 58 225 5.0 8.0 0.00 0.00 0.00 46 1013.6
20260504011004 58 231 6.0 8.0 0.00 0.00 0.00 48 1011.8
20260504010625 58 216 6.0 8.0 0.00 0.00 0.00 47 1013.4
20260504010504 58 223 6.0 8.0 0.00 0.00 0.00 48 1011.5
20260504010130 58 200 5.0 8.0 0.00 0.00 0.00 47 1013.6
20260504010003 58 217 6.0 8.0 0.00 0.00 0.00 48 1011.8
20260504005624 58 200 5.0 7.0 0.00 0.00 0.00 47 1013.6
20260504005504 58 220 4.0 6.0 0.00 0.00 0.00 49 1011.9
20260504005004 58 219 4.0 6.0 0.00 0.00 0.00 49 1011.7
20260504004503 58 216 3.0 4.0 0.00 0.00 0.00 49 1011.8
20260504004124 58 220 4.0 5.0 0.00 0.00 0.00 47 1013.5
20260504004004 58 222 4.0 6.0 0.00 0.00 0.00 49 1011.8
20260504003624 58 205 5.0 8.0 0.00 0.00 0.00 47 1013.7
20260504003503 59 206 5.0 8.0 0.00 0.00 0.00 49 1011.8
20260504003125 58 195 5.0 8.0 0.00 0.00 0.00 47 1013.6
20260504003004 59 201 5.0 8.0 0.00 0.00 0.00 49 1011.8
20260504002624 58 198 5.0 7.0 0.00 0.00 0.00 48 1013.7
20260504002504 58 213 5.0 8.0 0.00 0.00 0.00 49 1011.8
20260504002124 58 198 4.0 7.0 0.00 0.00 0.00 48 1013.5
20260504002003 58 215 5.0 8.0 0.00 0.00 0.00 50 1011.9
20260504001625 58 202 4.0 4.0 0.00 0.00 0.00 48 1013.5
20260504001504 59 215 5.0 5.0 0.00 0.00 0.00 50 1011.9
20260504001125 58 193 4.0 4.0 0.00 0.00 0.00 49 1014.0
20260504001003 59 222 5.0 5.0 0.00 0.00 0.00 50 1011.8
20260504000503 59 213 5.0 7.0 0.00 0.00 0.00 51 1012.0
20260504000130 58 208 5.0 7.0 0.00 0.00 0.00 49 1013.8
20260503235625 59 202 4.0 7.0 0.00 0.00 0.00 49 1013.7
20260503235125 59 194 4.0 5.0 0.00 0.00 0.00 50 1013.8
20260503235003 59 204 4.0 6.0 0.00 0.00 0.00 50 1012.0
20260503234625 59 199 5.0 6.0 0.00 0.00 0.00 50 1013.9
20260503234504 59 196 5.0 6.0 0.00 0.00 0.00 50 1012.2
20260503234124 59 203 5.0 6.0 0.00 0.00 0.00 50 1013.9
20260503234003 59 198 5.0 6.0 0.00 0.00 0.00 50 1012.2
20260503233624 59 200 4.0 7.0 0.00 0.00 0.00 50 1013.9
20260503233503 59 215 4.0 6.0 0.00 0.00 0.00 51 1012.2
20260503233125 59 212 4.0 7.0 0.00 0.00 0.00 51 1013.9
20260503233004 59 231 4.0 6.0 0.00 0.00 0.00 51 1012.2
20260503232624 59 228 4.0 4.0 0.00 0.00 0.00 51 1014.0
20260503232503 59 233 4.0 5.0 0.00 0.00 0.00 51 1012.2
20260503232003 59 213 4.0 5.0 0.00 0.00 0.00 50 1012.2
20260503231625 59 214 4.0 4.0 0.00 0.00 0.00 50 1014.0